TimeCDT,TemperatureF,Dew PointF,Humidity,Sea Level PressureIn,VisibilityMPH,Wind Direction,Wind SpeedMPH,Gust SpeedMPH,PrecipitationIn,Events,Conditions,WindDirDegrees,DateUTC
12:15 AM,69.8,69.8,100,29.96,7.0,Calm,Calm,-,N/A,,Clear,0,2013-08-07 05:15:00
12:35 AM,69.8,69.8,100,29.97,7.0,Calm,Calm,-,N/A,,Clear,0,2013-08-07 05:35:00
12:55 AM,69.8,69.8,100,29.97,7.0,Calm,Calm,-,N/A,,Clear,0,2013-08-07 05:55:00
1:15 AM,69.8,68.0,94,29.97,5.0,Calm,Calm,-,N/A,,Clear,0,2013-08-07 06:15:00
1:35 AM,69.8,69.8,100,29.96,5.0,South,3.5,-,N/A,,Clear,180,2013-08-07 06:35:00
1:55 AM,69.8,69.8,100,29.96,7.0,Calm,Calm,-,N/A,,Clear,0,2013-08-07 06:55:00
2:15 AM,69.8,69.8,100,29.95,7.0,Calm,Calm,-,N/A,,Clear,0,2013-08-07 07:15:00
2:35 AM,69.8,68.0,94,29.95,7.0,Calm,Calm,-,N/A,,Clear,0,2013-08-07 07:35:00
2:55 AM,69.8,69.8,100,29.94,7.0,Calm,Calm,-,N/A,,Clear,0,2013-08-07 07:55:00
3:15 AM,69.8,68.0,94,29.94,5.0,Calm,Calm,-,N/A,,Clear,0,2013-08-07 08:15:00
3:35 AM,69.8,68.0,94,29.93,5.0,Calm,Calm,-,N/A,,Clear,0,2013-08-07 08:35:00
3:55 AM,69.8,68.0,94,29.92,7.0,Calm,Calm,-,N/A,,Scattered Clouds,0,2013-08-07 08:55:00
4:15 AM,69.8,68.0,94,29.92,7.0,Calm,Calm,-,N/A,,Scattered Clouds,0,2013-08-07 09:15:00
4:35 AM,69.8,68.0,94,29.92,7.0,Calm,Calm,-,N/A,,Clear,0,2013-08-07 09:35:00
4:55 AM,69.8,68.0,94,29.93,7.0,Calm,Calm,-,N/A,,Clear,0,2013-08-07 09:55:00
5:15 AM,69.8,68.0,94,29.93,5.0,Calm,Calm,-,N/A,,Clear,0,2013-08-07 10:15:00
5:35 AM,69.8,68.0,94,29.93,7.0,Calm,Calm,-,N/A,,Clear,0,2013-08-07 10:35:00
5:55 AM,69.8,68.0,94,29.94,7.0,Calm,Calm,-,N/A,,Clear,0,2013-08-07 10:55:00
6:15 AM,69.8,68.0,94,29.94,7.0,Calm,Calm,-,N/A,,Clear,0,2013-08-07 11:15:00
6:35 AM,69.8,68.0,94,29.95,5.0,Calm,Calm,-,N/A,,Clear,0,2013-08-07 11:35:00
6:55 AM,69.8,69.8,100,29.96,7.0,Calm,Calm,-,N/A,,Clear,0,2013-08-07 11:55:00
7:15 AM,71.6,69.8,94,29.97,7.0,Calm,Calm,-,N/A,,Clear,0,2013-08-07 12:15:00
7:35 AM,71.6,69.8,94,29.96,10.0,Calm,Calm,-,N/A,,Clear,0,2013-08-07 12:35:00
7:55 AM,73.4,71.6,94,29.96,10.0,Calm,Calm,-,N/A,,Clear,0,2013-08-07 12:55:00
8:15 AM,73.4,71.6,94,29.97,10.0,Calm,Calm,-,N/A,,Clear,0,2013-08-07 13:15:00
8:35 AM,75.2,71.6,89,29.97,10.0,Calm,Calm,-,N/A,,Clear,0,2013-08-07 13:35:00
8:55 AM,77.0,73.4,89,29.99,10.0,Calm,Calm,-,N/A,,Clear,0,2013-08-07 13:55:00
9:15 AM,78.8,73.4,83,29.99,10.0,Calm,Calm,-,N/A,,Clear,0,2013-08-07 14:15:00
9:35 AM,80.6,73.4,79,29.99,10.0,Calm,Calm,-,N/A,,Clear,0,2013-08-07 14:35:00
9:55 AM,80.6,75.2,84,29.99,10.0,Calm,Calm,-,N/A,,Clear,0,2013-08-07 14:55:00
10:15 AM,82.4,75.2,79,29.99,10.0,Calm,Calm,-,N/A,,Clear,0,2013-08-07 15:15:00
10:35 AM,84.2,77.0,79,29.99,10.0,SW,3.5,-,N/A,,Clear,220,2013-08-07 15:35:00
10:55 AM,86.0,77.0,74,29.98,10.0,Calm,Calm,-,N/A,,Clear,0,2013-08-07 15:55:00
11:15 AM,86.0,77.0,74,29.98,10.0,Calm,Calm,-,N/A,,Clear,0,2013-08-07 16:15:00
11:35 AM,87.8,77.0,70,29.97,10.0,SW,3.5,-,N/A,,Clear,220,2013-08-07 16:35:00
11:55 AM,87.8,77.0,70,29.96,10.0,Calm,Calm,-,N/A,,Clear,0,2013-08-07 16:55:00
12:15 PM,89.6,77.0,66,29.96,10.0,West,3.5,-,N/A,,Clear,260,2013-08-07 17:15:00
12:35 PM,89.6,77.0,66,29.95,10.0,Calm,Calm,-,N/A,,Clear,0,2013-08-07 17:35:00
12:55 PM,91.4,77.0,63,29.95,10.0,Calm,Calm,-,N/A,,Clear,0,2013-08-07 17:55:00
1:15 PM,89.6,75.2,62,29.95,10.0,Calm,Calm,-,N/A,,Clear,0,2013-08-07 18:15:00
1:35 PM,91.4,77.0,63,29.94,10.0,South,4.6,-,N/A,,Scattered Clouds,170,2013-08-07 18:35:00
1:55 PM,91.4,77.0,63,29.94,10.0,South,4.6,-,N/A,,Scattered Clouds,190,2013-08-07 18:55:00
2:15 PM,89.6,73.4,59,29.93,10.0,Calm,Calm,-,N/A,,Mostly Cloudy,0,2013-08-07 19:15:00
2:35 PM,89.6,77.0,66,29.93,10.0,South,3.5,-,N/A,,Mostly Cloudy,170,2013-08-07 19:35:00
2:55 PM,89.6,77.0,66,29.93,10.0,Calm,Calm,-,N/A,Thunderstorm,Mostly Cloudy,0,2013-08-07 19:55:00
3:15 PM,86.0,73.4,66,29.94,10.0,NNE,11.5,-,N/A,Thunderstorm,Thunderstorm,20,2013-08-07 20:15:00
3:35 PM,82.4,73.4,74,29.92,10.0,NNE,12.7,19.6,N/A,Thunderstorm,Thunderstorm,30,2013-08-07 20:35:00
3:55 PM,78.8,73.4,83,29.96,7.0,SSW,8.1,-,0.03,Rain-Thunderstorm,Light Thunderstorms and Rain,200,2013-08-07 20:55:00
4:15 PM,78.8,73.4,83,29.94,10.0,SE,10.4,19.6,N/A,Thunderstorm,Thunderstorm,130,2013-08-07 21:15:00
4:35 PM,82.4,73.4,74,29.91,10.0,SE,6.9,-,N/A,Thunderstorm,Scattered Clouds,130,2013-08-07 21:35:00
4:55 PM,80.6,73.4,79,29.92,10.0,SE,5.8,-,N/A,Thunderstorm,Scattered Clouds,140,2013-08-07 21:55:00
5:15 PM,82.4,73.4,74,29.93,10.0,SE,5.8,-,N/A,,Scattered Clouds,140,2013-08-07 22:15:00
5:35 PM,86.0,73.4,66,29.92,10.0,SSE,6.9,-,N/A,,Clear,150,2013-08-07 22:35:00
5:55 PM,86.0,73.4,66,29.91,10.0,SSE,5.8,-,N/A,,Clear,150,2013-08-07 22:55:00
6:15 PM,82.4,75.2,79,29.90,10.0,SSE,5.8,-,N/A,,Clear,150,2013-08-07 23:15:00
6:35 PM,84.2,77.0,79,29.90,10.0,SSE,5.8,-,N/A,,Clear,150,2013-08-07 23:35:00
6:55 PM,84.2,77.0,79,29.90,10.0,Calm,Calm,-,N/A,,Clear,0,2013-08-07 23:55:00
7:15 PM,82.4,77.0,84,29.90,10.0,SE,4.6,-,N/A,,Clear,140,2013-08-08 00:15:00
7:35 PM,80.6,77.0,89,29.91,10.0,Calm,Calm,-,N/A,,Clear,0,2013-08-08 00:35:00
7:55 PM,80.6,75.2,84,29.91,10.0,ESE,3.5,-,N/A,,Clear,120,2013-08-08 00:55:00
8:15 PM,80.6,75.2,84,29.91,10.0,SE,3.5,-,N/A,,Clear,140,2013-08-08 01:15:00
8:35 PM,80.6,77.0,89,29.92,10.0,SE,3.5,-,N/A,,Clear,140,2013-08-08 01:35:00
8:55 PM,80.6,77.0,89,29.92,10.0,SE,4.6,-,N/A,,Clear,130,2013-08-08 01:55:00
9:15 PM,78.8,77.0,94,29.93,10.0,SE,3.5,-,N/A,,Clear,130,2013-08-08 02:15:00
9:35 PM,78.8,77.0,94,29.94,10.0,Calm,Calm,-,N/A,,Scattered Clouds,0,2013-08-08 02:35:00
9:55 PM,78.8,77.0,94,29.94,10.0,Calm,Calm,-,N/A,,Scattered Clouds,0,2013-08-08 02:55:00
10:15 PM,78.8,77.0,94,29.94,10.0,SE,3.5,-,N/A,,Scattered Clouds,130,2013-08-08 03:15:00
10:35 PM,78.8,77.0,94,29.95,10.0,SSE,3.5,-,N/A,,Scattered Clouds,150,2013-08-08 03:35:00
10:55 PM,78.8,75.2,89,29.96,10.0,SE,5.8,-,N/A,,Clear,140,2013-08-08 03:55:00
11:15 PM,78.8,75.2,89,29.95,10.0,SE,3.5,-,N/A,,Clear,140,2013-08-08 04:15:00
11:35 PM,77.0,73.4,89,29.96,10.0,Calm,Calm,-,N/A,,Clear,0,2013-08-08 04:35:00
11:55 PM,77.0,73.4,89,29.96,10.0,Calm,Calm,-,N/A,,Clear,0,2013-08-08 04:55:00